Starlink 34973

operational
NORAD ID: 65250 Int'l Des: 2025-179 Owner: SPXS Country: US Constellation: starlink
LEOCIRCULARRETROGRADESSO

About Starlink 34973

Description loading...

Live Position

Loading 3D Globe...

Upcoming Passes

Altitude History

Altitude vs Time

uPlot chart will show altitude changes over time

Two-Line Element Set

1 65250U 25179R 26015.66500519 .00004667 00000-0 32744-3 0 9994
2 65250 97.6050 60.7582 0000812 96.5098 263.6221 15.05652932 23839
Epoch: Jan 15, 2026 • Age: 10 hours

Current Status

Altitude 561.3 km
Velocity 7.59 km/s
Sub-Earth Point 71.50°N, 118.97°E
Launch Date Aug 18, 2025
Age 0.4 years
Type internet

Technical Details

Classification Payload
Mass 575.00 kg
Dry Mass 530.00 kg
Total Mass 575.00 kg
Length 0.30 m
Diameter 4.10 m
Span 29.00 m
Shape Box + pan
Manufacturer SPXS
Bus Type Starlink V2MO
Phase Status In Orbit
Owner/State SPXS/US

Large Constellations

Loading constellations...